Simultaneous Nadir Overpasses (SNOs) Predictions

Prediction of SNOs between GOES-16 and NOAA-19 Satellite Orbit:

Table of predicted SNOs for the next 14.0 days since TLE Epoch: 1/21/2023
Index Date Time (GOES-16) GOES-16 Lat,Lon NOAA-19 Lat,Lon Distance(km) Time Diff (sec)
1 01/23/2023 01:30:53 0.01, -75.19 -0.64, -77.90 309.78 80
2 01/24/2023 01:16:17 0.01, -75.20 0.03, -74.99 23.45 80
3 01/25/2023 01:04:21 0.01, -75.21 0.75, -72.09 356.49 80
4 01/27/2023 13:27:23 0.00, -75.25 0.36, -76.92 189.84 80
5 01/28/2023 13:12:47 -0.00, -75.27 -0.31, -74.01 143.90 80
6 01/29/2023 13:00:50 -0.01, -75.28 -0.98, -71.10 477.72 80
7 01/31/2023 01:35:45 0.00, -75.30 -0.84, -78.82 403.57 80
8 02/01/2023 01:23:49 0.01, -75.31 -0.16, -75.92 69.53 80
9 02/02/2023 01:09:14 0.02, -75.33 0.58, -73.02 264.60 80
